This is the latest recevied weather packets stored in our database for station/object KO6SRA-13. If no packets are shown the sender has not sent any weather packets the latest 10 day(s).
| Time | Temp. | Humidity | Pressure | Rain* | Wind** | Luminosity | Snow |
|---|---|---|---|---|---|---|---|
| 1787539557 | 15.56° C | 90% | 1016.7 hPa | 0 mm | - | 0 W/m² | - |
| 1787539256 | 15.56° C | 91% | 1016.6 hPa | 0 mm | - | 1 W/m² | - |
| 1787538953 | 15.56° C | 90% | 1016.7 hPa | 0 mm | - | 3 W/m² | - |
| 1787538650 | 15.56° C | 91% | 1016.6 hPa | 0 mm | - | 6 W/m² | - |
| 1787538345 | 15.56° C | 90% | 1016.4 hPa | 0 mm | - | 8 W/m² | - |
| 1787538040 | 15.56° C | 90% | 1016.3 hPa | 0 mm | - | 12 W/m² | - |
| 1787537737 | 15.56° C | 90% | 1016.4 hPa | 0 mm | - | 16 W/m² | - |
| 1787537432 | 15.56° C | 91% | 1016.5 hPa | 0 mm | - | 17 W/m² | - |
| 1787537127 | 15.56° C | 92% | 1016.6 hPa | 0 mm | - | 36 W/m² | - |
| 1787536827 | 15.56° C | 91% | 1016.4 hPa | 0 mm | - | 25 W/m² | - |
| 1787536523 | 15.56° C | 90% | 1016.6 hPa | 0 mm | - | 26 W/m² | - |
| 1787536218 | 15.56° C | 90% | 1016.5 hPa | 0 mm | - | 32 W/m² | - |
| 1787535914 | 15.56° C | 90% | 1016.4 hPa | 0 mm | - | 63 W/m² | - |
| 1787535614 | 16.11° C | 89% | 1016.2 hPa | 0 mm | - | 49 W/m² | - |
| 1787535310 | 16.11° C | 89% | 1016.6 hPa | 0 mm | - | 51 W/m² | - |
| 1787535005 | 16.11° C | 89% | 1016.6 hPa | 0 mm | - | 57 W/m² | - |
| 1787534703 | 16.11° C | 88% | 1016.5 hPa | 0 mm | - | 61 W/m² | - |
| 1787534402 | 16.11° C | 88% | 1016.6 hPa | 0 mm | - | 64 W/m² | - |
| 1787534097 | 16.67° C | 87% | 1016.7 hPa | 0 mm | - | 73 W/m² | - |
| 1787533793 | 16.67° C | 85% | 1016.9 hPa | 0 mm | - | 75 W/m² | - |
| 1787533490 | 16.67° C | 86% | 1016.9 hPa | 0 mm | - | 138 W/m² | - |
| 1787533184 | 17.22° C | 84% | 1016.7 hPa | 0 mm | - | 125 W/m² | - |
| 1787532880 | 17.78° C | 81% | 1016.7 hPa | 0 mm | - | 168 W/m² | - |
| 1787532576 | 17.78° C | 82% | 1016.8 hPa | 0 mm | - | 225 W/m² | - |
| 1787532271 | 17.78° C | 81% | 1017 hPa | 0 mm | - | 237 W/m² | - |
* Rain latest hour (hover to see other rain measurements)
** Current wind speed in m/s (hover to see current wind gust speed)